Quincy, IL

11:25 PM CDT on April 19, 2018 (GMT -0500)
Quincy Regional-Baldwin

Weather History for KUIN - March, 2013

Change the Weather History Date:

Thursday, March 14, 2013

  Actual Average Record
Temperature  
Mean Temperature 40 °F 41 °F  
Max Temperature 54 °F 51 °F 85 °F (1918)
Min Temperature 26 °F 32 °F 7 °F (1960)
Degree Days  
Heating Degree Days 25 24  
Month to date heating degree days 461 372  
Since 1 July heating degree days 4572 4714  
Cooling Degree Days 0 0  
Month to date cooling degree days 0 0  
Year to date cooling degree days 0 0  
Moisture  
Dew Point 26 °F    
Average Humidity 61    
Maximum Humidity 76    
Minimum Humidity 46    
Precipitation  
Precipitation T in 0.07 in 1.71 in (1922)
Month to date precipitation 2.03 1.06  
Year to date precipitation 7.50 4.46  
Sea Level Pressure  
Sea Level Pressure 30.20 in    
Wind  
Wind Speed 7 mph (SSE)    
Max Wind Speed 18 mph    
Max Gust Speed 24 mph    
Visibility 10 miles    
Events      
T = Trace of Precipitation, MM = Missing Value Source: NWS Daily Summary

Daily Weather History Graph

Daily Weather History Graph

Search for Another Location

Airport or City:

Astronomy

Mar. 14, 2013 Rise Set
Actual Time 7:17 AM CDT 7:10 PM CDT
Civil Twilight 6:50 AM CDT 7:37 PM CDT
Nautical Twilight 6:19 AM CDT 8:09 PM CDT
Astronomical Twilight 5:47 AM CDT 8:41 PM CDT
Moon 8:31 AM CDT (3/14) 10:27 PM CDT (3/14)
Length of Visible Light 12h 47m
Length of Day
11h 53m
Waxing Crescent, 9% of the Moon is Illuminated
Mar 14
Waxing Crescent
Mar 19
First Quarter
Mar 27
Full
Apr 2
Last Quarter
Apr 10
New

Hourly Weather History & Observations

Time (CDT) Temp. Windchill Dew Point Humidity Pressure Visibility Wind Dir Wind Speed Gust Speed Precip Events Conditions
12:54 AM 27.0 °F 23.0 °F 19.0 °F 72% 30.38 in 10.0 mi South 3.5 mph - N/A   Clear
1:54 AM 26.1 °F 21.9 °F 19.9 °F 78% 30.38 in 10.0 mi South 3.5 mph - N/A   Clear
2:54 AM 30.0 °F 26.5 °F 19.9 °F 66% 30.35 in 10.0 mi South 3.5 mph - N/A   Overcast
3:54 AM 30.9 °F 24.3 °F 19.9 °F 64% 30.33 in 10.0 mi South 6.9 mph - N/A   Overcast
4:54 AM 30.9 °F 26.2 °F 19.9 °F 64% 30.31 in 10.0 mi South 4.6 mph - N/A   Overcast
5:54 AM 30.9 °F 25.2 °F 19.0 °F 61% 30.30 in 10.0 mi South 5.8 mph - N/A   Overcast
6:54 AM 30.0 °F 24.1 °F 19.0 °F 64% 30.31 in 10.0 mi South 5.8 mph - N/A   Scattered Clouds
7:54 AM 32.0 °F 24.8 °F 19.0 °F 59% 30.29 in 10.0 mi South 8.1 mph - N/A   Overcast
8:54 AM 33.1 °F 25.5 °F 19.9 °F 59% 30.28 in 10.0 mi South 9.2 mph - N/A   Overcast
9:54 AM 34.0 °F 27.2 °F 23.0 °F 64% 30.28 in 10.0 mi SE 8.1 mph - N/A   Overcast
10:54 AM 37.0 °F 29.3 °F 21.9 °F 54% 30.22 in 10.0 mi SSE 11.5 mph - N/A   Overcast
11:54 AM 41.0 °F 33.9 °F 23.0 °F 49% 30.19 in 10.0 mi South 12.7 mph - N/A   Mostly Cloudy
12:54 PM 41.0 °F 33.9 °F 27.0 °F 57% 30.14 in 10.0 mi South 12.7 mph - 0.00 in   Scattered Clouds
1:54 PM 46.9 °F - 28.9 °F 50% 30.13 in 10.0 mi South 13.8 mph - N/A   Clear
2:54 PM 51.1 °F - 32.0 °F 48% 30.09 in 10.0 mi SW 13.8 mph - N/A   Clear
3:54 PM 53.1 °F - 33.1 °F 47% 30.08 in 10.0 mi SSW 12.7 mph - N/A   Clear
4:54 PM 54.0 °F - 33.1 °F 45% 30.09 in 10.0 mi WSW 8.1 mph - N/A   Clear
5:54 PM 54.0 °F - 33.1 °F 45% 30.08 in 10.0 mi Calm Calm - N/A   Clear
6:54 PM 52.0 °F - 37.9 °F 59% 30.09 in 10.0 mi ENE 3.5 mph - N/A   Clear
7:54 PM 48.9 °F - 34.0 °F 56% 30.09 in 10.0 mi East 3.5 mph - N/A   Clear
8:54 PM 48.0 °F - 33.1 °F 56% 30.09 in 10.0 mi East 5.8 mph - N/A   Clear
9:54 PM 39.9 °F 35.1 °F 32.0 °F 73% 30.10 in 10.0 mi SE 6.9 mph - N/A   Clear
10:54 PM 37.9 °F 34.4 °F 30.9 °F 76% 30.10 in 10.0 mi SSE 4.6 mph - N/A   Clear
11:54 PM 39.9 °F 34.5 °F 28.9 °F 65% 30.09 in 10.0 mi South 8.1 mph - N/A   Clear